Regional Weather Roundup
Issued by NWS

Home | Current Version | Previous Version | Graphics & Text | Print | Product List | Glossary On
Versions: 1 2 3 4 5 6 7 8 9 10 11 12 13 14 15 16 17 18 19 20 21 22 23 24 25 26 27 28 29 30 31 32 33 34 35 36 37 38 39 40 41 42 43 44 45 46 47 48 49 50
000
ASUS45 KPSR 210010
RWRAZ

ARIZONA REGIONAL HOURLY WEATHER ROUNDUP
NATIONAL WEATHER SERVICE PHOENIX AZ
500 PM MST SAT DEC 20 2014

NOTE: FAIR INDICATES FEW OR NO CLOUDS BELOW 12,000 FEET WITH NO
SIGNIFICANT WEATHER AND/OR OBSTRUCTIONS TO VISIBILITY.

AZZ001>003-036-210100-
NORTHWEST ARIZONA

CITY           SKY/WX    TMP DP  RH WIND       PRES   REMARKS
BULLHEAD CITY  MOCLDY    59  41  51 CALM      30.11R
KINGMAN        PTCLDY    52  30  43 W5        30.10R
6HR MIN TEMP:  47; 6HR MAX TEMP:  55;

$$

AZZ004>008-015-016-018-210100-
NORTH CENTRAL ARIZONA

CITY           SKY/WX    TMP DP  RH WIND       PRES   REMARKS
GRAND CANYON   MOCLDY    42  24  49 CALM      30.14R
6HR MIN TEMP:  41; 6HR MAX TEMP:  45;

PRESCOTT       PTCLDY    49  22  34 SW7       30.10S
6HR MIN TEMP:  47; 6HR MAX TEMP:  55;

FLAGSTAFF      PTCLDY    40  27  59 SW10      30.13R WCI  33
6HR MIN TEMP:  39; 6HR MAX TEMP:  45;

PAYSON         CLEAR     46  32  57 CALM      30.12R
PAGE           CLOUDY    41  30  65 N5        30.15R
6HR MIN TEMP:  39; 6HR MAX TEMP:  42;

$$

AZZ009>014-017-210100-
NORTHEAST ARIZONA

CITY           SKY/WX    TMP DP  RH WIND       PRES   REMARKS
WINSLOW        PTCLDY    36  32  85 NW6       30.13R WCI  31
6HR MIN TEMP:  30; 6HR MAX TEMP:  39;

SAINT JOHNS    MOCLDY    44  26  49 N6        30.10R
6HR MIN TEMP:  36; 6HR MAX TEMP:  47;

WINDOW ROCK    MOCLDY    42  24  49 NW6       30.12R
6HR MIN TEMP:  38; 6HR MAX TEMP:  47;

SHOW LOW       CLEAR     41  19  42 CALM      30.12S
$$

AZZ023-210100-
GREATER PHOENIX AREA

CITY           SKY/WX    TMP DP  RH WIND       PRES   REMARKS
PHOENIX        MOCLDY    64  36  35 W6        30.05S
6HR MIN TEMP:  58; 6HR MAX TEMP:  66;

BUCKEYE          N/A     61  39  44 S3        30.06F
GLENDALE       MOCLDY    63  39  42 VRB3      30.07F
LUKE AFB       PTCLDY    62  40  44 S6        30.05F
6HR MIN TEMP:  56; 6HR MAX TEMP:  63;

DEER VALLEY    PTCLDY    61  37  41 SW6       30.04F
6HR MIN TEMP:  56; 6HR MAX TEMP:  62;

SCOTTSDALE     PTCLDY    61  38  42 CALM      30.06F
6HR MIN TEMP:  56; 6HR MAX TEMP:  63;

MESA-FALCON    MOCLDY    59  36  41 W5        30.06S
MESA-GATEWAY   MOCLDY    59  39  47 W5        30.08F
CHANDLER       PTCLDY    61  41  48 VRB5      30.07S
$$

AZZ027-028-210100-
SOUTHWEST MARICOPA COUNTY AND PINAL COUNTY

CITY           SKY/WX    TMP DP  RH WIND       PRES   REMARKS
CASA GRANDE    PTCLDY    59  39  47 CALM      30.07S
6HR MIN TEMP:  52; 6HR MAX TEMP:  61;

GILA BEND      FAIR      63  39  41 NW2       30.08S
6HR MIN TEMP:  56; 6HR MAX TEMP:  67;

$$

AZZ503-504-507>509-210100-
SOUTHEAST ARIZONA

CITY           SKY/WX    TMP DP  RH WIND       PRES   REMARKS
TUCSON         CLEAR     60  36  40 NW3       30.08R
6HR MIN TEMP:  50; 6HR MAX TEMP:  63;

DAVIS-MONTHAN  CLEAR     58  31  34 NW2       30.06R
6HR MIN TEMP:  53; 6HR MAX TEMP:  60;

RYAN FIELD       N/A     61  37  41 NW5       30.09R
NOGALES        CLEAR     59  25  27 NW8       30.08R
6HR MIN TEMP:  51; 6HR MAX TEMP:  63;

SIERRA VISTA   CLEAR     54  24  31 NE8       30.09R
6HR MIN TEMP:  50; 6HR MAX TEMP:  60;

DOUGLAS        PTCLDY    56  23  27 NW5       30.09R
6HR MIN TEMP:  47; 6HR MAX TEMP:  60;

SAFFORD        CLEAR     53  34  48 CALM      30.07S
6HR MIN TEMP:  44; 6HR MAX TEMP:  56;

$$

AZZ020-021-025-026-031-210100-
SOUTHWEST ARIZONA

CITY           SKY/WX    TMP DP  RH WIND       PRES   REMARKS
YUMA           MOCLDY   N/A N/A N/A W3        30.07S
$$

CAZ031-033-041-043-047-048-061-210100-
SOUTHERN CALIFORNIA

CITY           SKY/WX    TMP DP  RH WIND       PRES   REMARKS
DOWNTOWN L.A.  MOCLDY    62  53  72 CALM      30.11S
6HR MIN TEMP:  59; 6HR MAX TEMP:  64;

L.A. AIRPORT   CLOUDY    61  55  81 W7        30.12S
6HR MIN TEMP:  58; 6HR MAX TEMP:  62;

SAN DIEGO      MOCLDY    63  53  70 W5        30.15R
6HR MIN TEMP:  59; 6HR MAX TEMP:  66;

BURBANK        MOCLDY    61  49  64 E6        30.11S
6HR MIN TEMP:  56; 6HR MAX TEMP:  63;

ONTARIO        CLOUDY    58  47  66 W3        30.12R
6HR MIN TEMP:  55; 6HR MAX TEMP:  59;

RIVERSIDE      CLOUDY    58  47  66 CALM      30.13R
6HR MIN TEMP:  52; 6HR MAX TEMP:  59;

PALM SPRINGS   MOCLDY    64  42  44 S5        30.08S
6HR MIN TEMP:  60; 6HR MAX TEMP:  67;

EL CENTRO NAS  CLOUDY    65  45  48 CALM      30.07S
6HR MIN TEMP:  59; 6HR MAX TEMP:  66;

IMPERIAL       CLOUDY    64  42  44 CALM      30.07S
6HR MIN TEMP:  57; 6HR MAX TEMP:  66;

BLYTHE         MOCLDY    60  45  57 S5        30.06F
6HR MIN TEMP:  51; 6HR MAX TEMP:  61;

NEEDLES        MOCLDY    60  40  47 N3        30.08R
6HR MIN TEMP:  54; 6HR MAX TEMP:  62;

$$

NVZ020-UTZ003-210100-
SOUTHERN NEVADA-UTAH

CITY           SKY/WX    TMP DP  RH WIND       PRES   REMARKS
LAS VEGAS      MOCLDY    54  37  52 E6        30.09R
6HR MIN TEMP:  50; 6HR MAX TEMP:  56;

SALT LAKE CITY CLOUDY    41  35  79 SE7       30.06S
6HR MIN TEMP:  39; 6HR MAX TEMP:  42; 6HR PCP:  0.04;

$$

NMZ009-TXZ055-210100-
NEW MEXICO-WEST TEXAS

CITY           SKY/WX    TMP DP  RH WIND       PRES   REMARKS
ALBUQUERQUE    PTCLDY    42  27  55 SE5       30.08F
6HR MIN TEMP:  36; 6HR MAX TEMP:  45;

EL PASO        PTCLDY    55  24  30 CALM      30.05S
6HR MIN TEMP:  47; 6HR MAX TEMP:  57;

$$


........................KEY........................
SKY/WX - SKY CONDITION/WEATHER
TMP    - TEMPERATURE IN FAHRENHEIT
DP     - DEW POINT IN FAHRENHEIT
RH     - RELATIVE HUMIDITY IN PERCENT
WIND   - DIRECTION AND SPEED IN MILES PER HOUR (MPH)
VRB    - VARIABLE WIND DIRECTION
PRES   - MEAN SEA LEVEL PRESSURE IN INCHES OF MERCURY
         F - FALLING PRESSURE   R - RISING PRESSURE
         S - STEADY PRESSURE
VSB    - VISIBILITY IN MILES
HX     - HEAT INDEX IN FAHRENHEIT
WCI    - WIND CHILL INDEX IN FAHRENHEIT
TC     - TEMPERATURE IN CELSIUS WHICH IS ALSO KNOWN AS
         TEMPERATURE IN CENTIGRADE
AFB    - AIR FORCE BASE
         LUKE AFB IS LUKE AIR FORCE BASE
         DAVIS-MONTHAN IS DAVIS-MONTHAN AIR FORCE BASE
NAS    - NAVAL AIR STATION
         EL CENTRO NAS IS EL CENTRO NAVAL AIR STATION
N/A    - NOT AVAILABLE


USA.gov is the U.S. government's official web portal to all federal, state and local government web resources and services.